When you browse on this site, cookies collect data to enhance your experience and personalize the content and advertising you see.
Visit our Privacy Policy to learn more. By continuing to use the site, you agree to this use of cookies and data.
  • In Portugal
  • List of Countries
  • For 7 days
  • Water Temperature
  • Weather Map
  • Weather Widgets
  • user-avatar
    Login

    Hourly Weather Berat

    Today, 25 February, Tuesday

    Time Temperature Precipitation Wind Pressure Humidity
    00:00 +11°C° 0 mm 1 mps 746 mmHg 67%
    01:00 +11°C° 0 mm 1 mps 746 mmHg 65%
    02:00 +11°C° 0 mm 1 mps 746 mmHg 63%
    03:00 +10°C° 0 mm 2 mps 745 mmHg 62%
    04:00 +10°C° 0 mm 2 mps 745 mmHg 61%
    05:00 +12°C° 0 mm 2 mps 745 mmHg 60%
    06:00 +12°C° 0 mm 2 mps 745 mmHg 60%
    07:00 +12°C° 0 mm 2 mps 745 mmHg 59%
    08:00 +14°C° 0 mm 2 mps 745 mmHg 56%
    09:00 +16°C° 0 mm 2 mps 745 mmHg 53%
    10:00 +18°C° 0 mm 2 mps 745 mmHg 50%
    11:00 +19°C° 0 mm 2 mps 745 mmHg 50%
    12:00 +19°C° 0 mm 2 mps 744 mmHg 49%
    13:00 +20°C° 0 mm 2 mps 744 mmHg 49%
    14:00 +19°C° 0 mm 2 mps 743 mmHg 52%
    15:00 +19°C° 0 mm 2 mps 743 mmHg 55%
    16:00 +18°C° 0 mm 2 mps 743 mmHg 59%
    17:00 +17°C° 0 mm 3 mps 743 mmHg 66%
    18:00 +14°C° 0 mm 3 mps 743 mmHg 73%
    19:00 +12°C° 0 mm 3 mps 743 mmHg 80%
    20:00 +12°C° 0 mm 3 mps 742 mmHg 81%
    21:00 +11°C° 0 mm 3 mps 742 mmHg 82%
    22:00 +11°C° 0 mm 3 mps 742 mmHg 83%
    23:00 +11°C° 0 mm 3 mps 742 mmHg 83%

    Tomorrow, 26 February, Wednesday

    Time Temperature Precipitation Wind Pressure Humidity
    00:00 +10°C° 0 mm 3 mps 741 mmHg 83%
    01:00 +10°C° 0 mm 3 mps 741 mmHg 83%
    02:00 +10°C° 0 mm 3 mps 740 mmHg 83%
    03:00 +10°C° 0 mm 3 mps 740 mmHg 83%
    04:00 +10°C° 0 mm 3 mps 739 mmHg 83%
    05:00 +10°C° 0 mm 3 mps 739 mmHg 83%
    06:00 +10°C° 0 mm 4 mps 739 mmHg 83%
    07:00 +10°C° 0 mm 4 mps 738 mmHg 83%
    08:00 +12°C° 0 mm 4 mps 738 mmHg 76%
    09:00 +13°C° 0 mm 5 mps 738 mmHg 70%
    10:00 +15°C° 0 mm 5 mps 738 mmHg 63%
    11:00 +15°C° 0 mm 6 mps 737 mmHg 63%
    12:00 +16°C° 0 mm 6 mps 737 mmHg 62%
    13:00 +16°C° 0 mm 6 mps 736 mmHg 61%
    14:00 +16°C° 0.1 mm 6 mps 736 mmHg 63%
    15:00 +15°C° 0.1 mm 5 mps 735 mmHg 64%
    16:00 +15°C° 0.1 mm 5 mps 735 mmHg 66%
    17:00 +14°C° 0.2 mm 5 mps 735 mmHg 72%
    18:00 +12°C° 0.2 mm 4 mps 735 mmHg 78%
    19:00 +11°C° 0.2 mm 4 mps 736 mmHg 83%
    20:00 +11°C° 0.3 mm 4 mps 736 mmHg 83%
    21:00 +11°C° 0.3 mm 4 mps 736 mmHg 82%
    22:00 +10°C° 0.3 mm 4 mps 736 mmHg 81%
    23:00 +10°C° 0.7 mm 4 mps 736 mmHg 81%

    Day after tomorrow, 27 February, Thursday

    Time Temperature Precipitation Wind Pressure Humidity
    00:00 +9°C° 0.7 mm 5 mps 736 mmHg 81%
    01:00 +9°C° 0.7 mm 6 mps 736 mmHg 81%
    02:00 +8°C° 1.1 mm 6 mps 736 mmHg 79%
    03:00 +8°C° 1.1 mm 7 mps 735 mmHg 78%
    04:00 +6°C° 1.1 mm 7 mps 735 mmHg 77%
    05:00 +5°C° 0.6 mm 6 mps 735 mmHg 78%
    06:00 +6°C° 0.6 mm 4 mps 736 mmHg 80%
    07:00 +5°C° 0.6 mm 3 mps 736 mmHg 81%
    08:00 +5°C° 0.7 mm 4 mps 737 mmHg 77%
    09:00 +6°C° 0.7 mm 5 mps 737 mmHg 73%
    10:00 +5°C° 0.7 mm 6 mps 738 mmHg 70%
    11:00 +7°C° 0.3 mm 4 mps 738 mmHg 69%
    12:00 +8°C° 0.3 mm 3 mps 739 mmHg 67%
    13:00 +9°C° 0.3 mm 2 mps 739 mmHg 66%
    14:00 +8°C° 0.6 mm 3 mps 740 mmHg 69%
    15:00 +7°C° 0.6 mm 4 mps 740 mmHg 72%
    16:00 +7°C° 0.6 mm 5 mps 741 mmHg 76%
    17:00 +6°C° 0.1 mm 4 mps 742 mmHg 77%
    18:00 +6°C° 0.1 mm 2 mps 742 mmHg 78%
    19:00 +7°C° 0.1 mm 1 mps 743 mmHg 80%
    20:00 +6°C° 0 mm 1 mps 744 mmHg 79%
    21:00 +6°C° 0 mm 1 mps 744 mmHg 79%
    22:00 +6°C° 0 mm 1 mps 744 mmHg 78%
    23:00 +6°C° 0 mm 1 mps 744 mmHg 78%

    28 February, Friday

    Time Temperature Precipitation Wind Pressure Humidity
    00:00 +5°C° 0 mm 2 mps 744 mmHg 77%
    01:00 +5°C° 0 mm 2 mps 744 mmHg 76%
    02:00 +5°C° 0 mm 2 mps 744 mmHg 76%
    03:00 +5°C° 0 mm 2 mps 744 mmHg 75%
    04:00 +5°C° 0 mm 2 mps 744 mmHg 74%
    05:00 +5°C° 0.1 mm 2 mps 743 mmHg 75%
    06:00 +5°C° 0.1 mm 2 mps 743 mmHg 76%
    07:00 +6°C° 0.1 mm 2 mps 743 mmHg 77%
    08:00 +5°C° 0.2 mm 3 mps 743 mmHg 80%
    09:00 +5°C° 0.2 mm 3 mps 743 mmHg 83%
    10:00 +6°C° 0.2 mm 4 mps 743 mmHg 86%
    11:00 +7°C° 0.3 mm 3 mps 742 mmHg 86%
    12:00 +8°C° 0.3 mm 3 mps 742 mmHg 87%
    13:00 +8°C° 0.3 mm 3 mps 742 mmHg 88%
    14:00 +9°C° 0.4 mm 3 mps 742 mmHg 87%
    15:00 +10°C° 0.4 mm 2 mps 742 mmHg 86%
    16:00 +10°C° 0.4 mm 2 mps 742 mmHg 84%
    17:00 +10°C° 0.3 mm 2 mps 743 mmHg 87%
    18:00 +9°C° 0.3 mm 2 mps 743 mmHg 89%
    19:00 +9°C° 0.3 mm 1 mps 744 mmHg 91%
    20:00 +9°C° 0 mm 1 mps 745 mmHg 90%
    21:00 +9°C° 0 mm 1 mps 745 mmHg 89%
    22:00 +9°C° 0 mm 1 mps 746 mmHg 88%
    23:00 +8°C° 0 mm 1 mps 746 mmHg 86%

    29 February, Saturday

    Time Temperature Precipitation Wind Pressure Humidity
    00:00 +8°C° 0 mm 1 mps 746 mmHg 84%
    01:00 +7°C° 0 mm 1 mps 746 mmHg 82%
    02:00 +7°C° 0 mm 1 mps 746 mmHg 81%
    03:00 +7°C° 0 mm 1 mps 746 mmHg 79%
    04:00 +5°C° 0 mm 2 mps 746 mmHg 77%
    05:00 +5°C° 0 mm 2 mps 746 mmHg 75%
    06:00 +6°C° 0 mm 2 mps 746 mmHg 72%
    07:00 +6°C° 0 mm 2 mps 746 mmHg 69%
    08:00 +8°C° 0 mm 2 mps 746 mmHg 62%
    09:00 +11°C° 0 mm 1 mps 746 mmHg 54%
    10:00 +13°C° 0 mm 1 mps 747 mmHg 46%
    11:00 +14°C° 0 mm 1 mps 746 mmHg 45%
    12:00 +15°C° 0 mm 2 mps 746 mmHg 45%
    13:00 +15°C° 0 mm 2 mps 746 mmHg 44%
    14:00 +15°C° 0 mm 2 mps 745 mmHg 48%
    15:00 +15°C° 0 mm 2 mps 745 mmHg 52%
    16:00 +15°C° 0 mm 2 mps 745 mmHg 56%
    17:00 +14°C° 0 mm 2 mps 745 mmHg 61%
    18:00 +12°C° 0 mm 2 mps 745 mmHg 66%
    19:00 +11°C° 0 mm 1 mps 745 mmHg 71%
    20:00 +10°C° 0 mm 2 mps 745 mmHg 71%
    21:00 +10°C° 0 mm 2 mps 745 mmHg 72%
    22:00 +10°C° 0 mm 2 mps 745 mmHg 72%
    23:00 +10°C° 0 mm 2 mps 745 mmHg 73%

    1 March, Sunday

    Time Temperature Precipitation Wind Pressure Humidity
    00:00 +10°C° 0 mm 3 mps 744 mmHg 74%
    01:00 +10°C° 0 mm 3 mps 744 mmHg 75%
    02:00 +9°C° 0 mm 3 mps 744 mmHg 76%
    03:00 +9°C° 0 mm 3 mps 744 mmHg 78%
    04:00 +9°C° 0 mm 3 mps 743 mmHg 79%
    05:00 +9°C° 0 mm 3 mps 743 mmHg 80%
    06:00 +9°C° 0 mm 3 mps 743 mmHg 80%
    07:00 +9°C° 0 mm 3 mps 743 mmHg 81%
    08:00 +11°C° 0 mm 4 mps 743 mmHg 76%
    09:00 +13°C° 0 mm 4 mps 743 mmHg 71%
    10:00 +15°C° 0 mm 5 mps 743 mmHg 66%
    11:00 +15°C° 0 mm 5 mps 743 mmHg 64%
    12:00 +16°C° 0 mm 5 mps 743 mmHg 62%
    13:00 +16°C° 0 mm 5 mps 742 mmHg 60%
    14:00 +16°C° 0 mm 5 mps 742 mmHg 63%
    15:00 +17°C° 0 mm 4 mps 742 mmHg 65%
    16:00 +15°C° 0 mm 4 mps 741 mmHg 68%
    17:00 +14°C° 0.1 mm 4 mps 741 mmHg 72%
    18:00 +14°C° 0.1 mm 3 mps 741 mmHg 76%
    19:00 +13°C° 0.1 mm 3 mps 741 mmHg 80%
    20:00 +12°C° 0.1 mm 3 mps 742 mmHg 81%
    21:00 +12°C° 0.1 mm 3 mps 742 mmHg 83%
    22:00 +12°C° 0.1 mm 3 mps 742 mmHg 85%
    23:00 +12°C° 0.1 mm 3 mps 742 mmHg 86%
    Show more